Showing default

FGN-100-D3, 68464

Orbit data source: Space-Track

FGN-100-D3, 68464 is a Turkish payload satellite in SSO that was launched on Mon, 30 Mar 2026 UTC via an FALCON 9 launch vehicle from the Air Force Western Test Range (AFWTR). Payload-class satellites include a variety of spacecraft equipped with specific instruments for various scientific and technological missions. These include communications satellites like Starlink; space stations such as the ISS; scientific satellites like the Hubble; Earth observation satellites from companies like Planet Labs, Umbra, and HawkEye 360; GPS; miniature CubeSats for education and research; and military/defense satellites.

Loading next visibility...
Identifier
68464, 2026-067BA
Orbit
SSO
Country
Flag of TRTR / TURK
Related business
Manufacturer
FERG
Mission
Operational Commercial Navigation
Bus & Motor
FGN-100, Unknown motor
Mass
113 kg wet, 113 kg dry
Launch date (UTC)
2026-03-30 (6 months ago)
Launch vehicle
FALCON 9
Launch site
Air Force Western Test Range (AFWTR)
Object type
Payload
Rocket body
Debris
Shape & HBR
Box, 0.6 m
Radar Cross Section
0.480 m², Medium (>0.1 m² and < 1m²)

Expand to show TLE details & history
Last TLE update: 21 hours ago

TLE from 21 hours ago
0 FGN-100-D3
1 68464U 26067BA  26262.69519212  .00003330  00000-0  16521-3 0  9999
2 68464  97.4625 219.6884 0004780 106.4305 253.7455 15.18397230 26276
Epoch: 2026-09-19T16:41Z
TLE epoch observation values (Epoch: 2026-09-19T16:41:04.599Z)
Latitude
0.00002°
Longitude
-29.1808°
Altitude
514.694 km
Speed
7.606 km/s
True Right ascension
14h 38m 45s
True Declination
0° 00' 00"
Sunlit
Object was in daylight at epoch
Visualization orbit readout
Latitude
Unknown
Longitude
Unknown
Altitude
Unknown
Speed
Unknown
Apparent Right ascension
Unknown
Apparent Declination
Unknown
Sunlit
N/A
Visualization observer readout
Local Sidereal Time
06:54:12
Azimuth
Unknown
Elevation
Unknown
Doppler factor
Unknown
Orbital elements
Apogee altitude
510.946 km
Perigee altitude
504.363 km
Semi-major axis
6,885.791 km
Eccentricity
0.00048
Inclination
97.4625°
RAAN
219.6884°
Arg. of periapsis
106.4305°
True anomaly
253.69292°
Mean anomaly
253.7455°
Eccentric anomaly
253.71921°
Mean motion
3.7985 °/min
Orbital period
94.77 mins
BSTAR
0.00016521
Loading maneuver chart data...
Computing Atmospheric mass density...
Loading historical data...
Loading historical data...
Loading historical data...
Loading historical data...
Loading historical data...
Loading historical data...
Loading historical data...

Documentation

Showing up to 5 results
|